Regional Weather Roundup
Issued by NWS Sterling, VA

Home | Current Version | Previous Version | Graphics & Text | Print | Product List | Glossary On
Versions: 1 2 3 4 5 6 7 8 9 10 11 12 13 14 15 16 17 18 19 20 21 22 23 24 25 26 27 28 29 30 31 32 33 34 35 36 37 38 39 40 41 42 43 44 45 46 47 48 49 50
757
ASUS41 KLWX 221710
RWRLWX

REGIONAL WEATHER ROUNDUP
NATIONAL WEATHER SERVICE BALTIMORE MD/WASHINGTON DC
100 PM EDT WED MAR 22 2017

Note: "FAIR" indicates few or no clouds below 12,000 feet
with no significant weather and/or obstructions to visibility.
 TC=TEMPERATURE CELSIUS

 * =Non NWS site. Station does not report precipitation (e.g. rain,
    snow, etc.), thunder, or fog.

DCZ001-MDZ009-015-VAZ040>042-051-053>054-221800-
WASHINGTON METRO

CITY           SKY/WX    TMP DP  RH WIND       PRES   REMARKS
WASHINGTON NAT MOSUNNY   46  16  30 NW24G32   30.27R
DULLES         MOSUNNY   44  15  31 NW18G28   30.28R
ANDREWS AFB    SUNNY     44  12  27 N23G36    30.25R
FT BELVOIR     SUNNY     45  10  24 NW20G29   30.27R
QUANTICO       MOSUNNY   47  16  29 NW22G30   30.29R
COLLEGE PARK*  SUNNY     43  10  26 NW18G26   30.26R
LEESBURG*      SUNNY     43  21  42 NW16G29   30.29S
MANASSAS*      SUNNY     45  15  30 N20G32    30.29R
GAITHERSBURG*  MOSUNNY   45  18  33 N9G21     30.29R

$$

MDZ006>007-011-014-221800-
BALTIMORE METRO

CITY           SKY/WX    TMP DP  RH WIND       PRES   REMARKS
BWI AIRPORT    MOSUNNY   45   8  22 NW18G32   30.24R
MD SCIENCE CTR   N/A     44   6  21 MISG      30.25R
MARTIN STATE   SUNNY     46  16  29 NW16G31   30.26R
ANNAPOLIS      SUNNY     44  19  36 NW16      30.24R
FORT MEADE*    SUNNY     45  12  26 NW18G30   30.28R

$$

MDZ012-015-019>023-221800-
MARYLAND EASTERN SHORE

CITY           SKY/WX    TMP DP  RH WIND       PRES   REMARKS
OCEAN CITY     SUNNY     48  19  31 NW25G39   30.16R
SALISBURY      SUNNY     49  19  30 N20G31    30.18R
BAY BRIDGE AP* SUNNY     45  18  33 N17G29    30.25R
CAMBRIDGE*     SUNNY     45  14  29 NW21G29   30.23R
EASTON*        SUNNY     46  14  27 N16G25    30.26R

$$

MDZ017>025-221800-
SOUTHERN MARYLAND

CITY           SKY/WX    TMP DP  RH WIND       PRES   REMARKS
PATUXENT RIVER MOSUNNY   48  24  39 NW22G29   30.22R
ST INIGOES     SUNNY     47  19  33 N10G21    30.22R
LEONARDTOWN*   SUNNY     45  14  29 NW7G23    30.24S

$$

MDZ003>005-221800-
NORTH CENTRAL MARYLAND

CITY           SKY/WX    TMP DP  RH WIND       PRES   REMARKS
FREDERICK*     SUNNY     45  19  36 NW17G23   30.31R
HAGERSTOWN APT SUNNY     42  12  29 NW23G33   30.28R
WESTMINSTER*   SUNNY     39  12  33 N9G23     30.24R

$$

MDZ501>502-221800-
WESTERN MARYLAND

CITY           SKY/WX    TMP DP  RH WIND       PRES   REMARKS
OAKLAND*       SUNNY     30  12  47 W10G17    30.26R WCI  21
CUMBERLAND*    SUNNY     41  10  28 NW12G26   30.37S

$$

VAZ025>031-221800-
SHENANDOAH VALLEY

CITY           SKY/WX    TMP DP  RH WIND       PRES   REMARKS
WINCHESTER*    SUNNY     41  16  36 W20G30    30.28S
FRONT ROYAL*   SUNNY     41  12  30 NW17G30   30.28R
LURAY*         SUNNY     43  18  36 N15G23    30.28R
NEW MARKET*    SUNNY     42   9  26 N12G23    30.28S
STAUNTON*      SUNNY     44  12  27 NE12G21   30.28R
WAYNESBORO*    SUNNY     43  14  31 N12G20    30.25R

$$

WVZ021-048>050-054>055-221800-
EASTERN WEST VIRGINIA PANHANDLE

CITY           SKY/WX    TMP DP  RH WIND       PRES   REMARKS
MARTINSBURG    SUNNY     42  10  27 N25G33    30.28R
PETERSBURG*    SUNNY     41  15  33 N16G25    30.34S

$$

VAZ036>039-050-221800-
CENTRAL FOOTHILLS

CITY           SKY/WX    TMP DP  RH WIND       PRES   REMARKS
CHARLOTTESVILL SUNNY     48  11  22 W12G21    30.27R
CULPEPER*      SUNNY     46  15  29 NW12G23   30.30S
ORANGE*        SUNNY     43  12  28 N10G17    30.29S
GORDONSVILLE*  SUNNY     46  13  26 NE10G17   30.27R
WARRENTON*     SUNNY     47  10  23 NW15G23   30.28S

$$

VAZ055>057-221800-
NORTH AND CENTRAL PIEDMONT

CITY           SKY/WX    TMP DP  RH WIND       PRES   REMARKS
FREDERICKSBRG* SUNNY     45  19  35 N13G20    30.28R
STAFFORD*      SUNNY     44  17  33 NW15G26   30.32R

$$

NCZ024-NYZ072-PAZ021-071-VAZ022-071-221800-
OTHER REGIONAL OBSERVATIONS

CITY           SKY/WX    TMP DP  RH WIND       PRES   REMARKS
NEW YORK CITY  SUNNY     34   2  25 N13G30    30.20R WCI  25
PHILADELPHIA   MOSUNNY   41   7  24 N24G31    30.22R
PITTSBURGH     MOSUNNY   33   9  36 N13G24    30.42R WCI  24
ROANOKE        MOSUNNY   53  16  23 NW9G23    30.25R
RICHMOND       MOSUNNY   50  15  24 N28G33    30.24R
RALEIGH        CLOUDY    60  26  27 N9G21     30.16R

$$

ANZ530>537-221800-
MARINE OBSERVATIONS

STATION/POSITION TIME  TEMP    WIND        PRES
                       AIR SEA DIR/SP/G
                 (UTC) (F)     (DEG/KT/KT) (MB)
THOMAS PT LIGHT  1700   42 44  350/ 21/ 24   N/A
BALT KEY BRIDGE  1648   41     330/ 19/ 22 1023.9R
COVE POINT       1648   41      20/ 19/ 27 1024.1R
LEWISETTA        1648   43 48  340/ 20/ 25 1023.5R
SOLOMONS ISLAND  1648   44 46  320/ 14/ 22   N/A
PINEY POINT      1648          340/ 19/ 22   N/A

$$





USA.gov is the U.S. government's official web portal to all federal, state and local government web resources and services.